GORIZONT 26 [-]

Last updated on Nov. 15, 2019, 4:20 a.m. UTC

1 22041U 92043A   19318.84789372  .00000047  00000-0  00000+0 0  9997
2 22041  15.0430   3.6301 0030753 217.1570 177.4332  0.99242159 99611
UTC
Height (km)
Latitude
Longitude
Inclination
Orbital Period
UTC large
Height (km)
Speed (km/s)
/
Latitude / Longitude
Inclination (degrees)
Orbital Period (minutes)
Azimuth
Elevation
Range (km)
Doppler Factor
iOS Compass Heading
iOS Angle

Next 30 passes for location: Hong Kong

Rise time Rise Azimuth (degrees) Set time Set Azimuth (degrees) Duration Max altitude (degrees)

No matching passes for this satellites